Volver al catálogo

CZ-6A DEB

ActivoPO
NORAD 60861·DEBRIS·🇨🇳 China

Lanzado Aug 6, 2024 desde Taiyuan Satellite Launch Center

Loading…

Próximos Pases (próximas 24 horas)

TLE

ActualizadoSource: Space-Track

Época: Sep 14, 2026, 10:32 UTC

1 60861U 24140JQ  26257.43924466  .00076033  00000-0  18855-2 0  9990
2 60861  89.0538 260.2483 0052084 102.0023 258.7078 15.38673555113918

Sigue CZ-6A DEB en tiempo real con AllMySat

Download on the App Store